COSMOS 2251 DEB, 34579

Orbit data source: Space-Track

COSMOS 2251 DEB, 34579 is space debris in LEO originally from a launch on Wed, 16 Jun 1993 UTC launched from the Plesetsk Missile And Space Complex (PKMTR). The debris from Iridium 33, an American commercial communications satellite, has been tracked extensively since its accidental collision with the defunct Russian satellite Cosmos 2251 in 2009. This event, occurring at high speed in low Earth orbit (LEO), generated thousands of pieces of space debris, significantly increasing the risk of further collisions. The Iridium 33 debris cloud has impacted space traffic management and orbital debris mitigation strategies, making it a subject of ongoing study in space situational awareness.

Loading next visibility...
Identifier
34579, 1993-036VR
Orbit
LEO
Country
Flag of CISCIS
Related business
Manufacturer
Unknown
Mission
Spacecraft
Bus & Motor
Unknown
Mass
Unknown
Launch date (UTC)
1993-06-16 (32 years ago)
Launch vehicle
Unknown
Launch site
Plesetsk Missile And Space Complex (PKMTR)
Object type
Payload
Rocket body
Debris
Shape & HBR
Unknown shape, 0.1 m
Radar Cross Section
Small (<0.1 m²)

Expand to show TLE details & history
Last TLE update: 9 hours ago

TLE from 9 hours ago
0 COSMOS 2251 DEB
1 34579U 93036VR  25292.87560600  .00002101  00000-0  60673-3 0  9990
2 34579  74.0529 324.1553 0025923  44.4646  10.6651 14.45038461873967
Epoch: 2025-10-19T21:00Z
TLE epoch observation values (Epoch: 2025-10-19T21:00:52.358Z)
Latitude
52.23893°
Longitude
1.87711°
Altitude
731.888 km
Speed
7.504 km/s
True Right ascension
23h 02m 43s
True Declination
52° 04' 18"
Sunlit
Object was in full shadow at epoch
Visualization orbit readout
Latitude
Unknown
Longitude
Unknown
Altitude
Unknown
Speed
Unknown
Apparent Right ascension
Unknown
Apparent Declination
Unknown
Sunlit
N/A
Visualization observer readout
Local Sidereal Time
01:01:12
Azimuth
Unknown
Elevation
Unknown
Doppler factor
Unknown
Orbital elements
Apogee altitude
757.963 km
Perigee altitude
721.061 km
Semi-major axis
7,117.649 km
Eccentricity
0.00259
Inclination
74.0529°
RAAN
324.1553°
Arg. of periapsis
44.4646°
True anomaly
10.72025°
Mean anomaly
10.6651°
Eccentric anomaly
10.69266°
Mean motion
3.61442 °/min
Orbital period
99.6 mins
BSTAR
0.00060673
Loading maneuver chart data...
Computing Atmospheric mass density...

Documentation

Showing up to 5 results
|